Location: Strawberry
(45.6646°N, 111.9596°W)
Time: 13:14:56
(UTC+00:00)

Transit 4A - Pass Details

Date: 12 October 2022
Orbit: 871 x 973 km, 66.8° (Epoch: 26 November)

Event Time Altitude Azimuth Distance (km) Brightness Sun altitude
Rises 02:59:48 0° 196° (SSW) 3,598 11.0 -23.5°
Reaches altitude 10° 03:02:24 10° 192° (SSW) 2,643 10.2 -24.0°
Enters shadow 03:07:22 49° 150° (SSE) 1,176 8.1 -24.8°
